Simultaneous Nadir Overpasses (SNOs) Predictions

Prediction of SNOs between AQUA and METOP-B Satellite Orbit:

Table of predicted SNOs for the next 14.0 days since TLE Epoch: 6/10/2023
Index Date (AQUA) Time (AQUA) Lat,Lon (AQUA) SZA (AQUA ) Date (METOP-B) Time (METOP-B) Lat,Lon (METOP-B) SZA (METOP-B ) Distance(km) Time Diff (sec)
1 06/10/2023 10:03:08 74.52, 25.02 51.47 06/10/2023 10:02:29 74.54, 25.07 51.49 2.37 39
2 06/10/2023 10:52:33 -74.60,-167.53 128.45 06/10/2023 10:53:10 -74.58,-167.50 128.48 2.88 37
3 06/13/2023 03:55:50 74.52, 116.88 51.29 06/13/2023 03:55:29 74.54, 116.83 51.32 3.34 21
4 06/13/2023 04:45:15 -74.60, -75.66 128.64 06/13/2023 04:46:10 -74.59, -75.73 128.65 2.37 55
5 06/15/2023 20:59:04 -74.49, 41.17 128.88 06/15/2023 20:57:51 -74.41, 40.90 128.94 11.65 73
6 06/15/2023 21:48:31 74.56,-151.37 51.20 06/15/2023 21:48:28 74.54,-151.44 51.18 3.29 3
7 06/15/2023 22:37:56 -74.64, 16.09 128.72 06/15/2023 22:39:08 -74.64, 16.14 128.73 1.51 72
8 06/18/2023 14:51:45 -74.53, 132.93 128.92 06/18/2023 14:50:48 -74.55, 133.00 128.89 3.17 57
9 06/18/2023 15:41:12 74.61, -59.62 51.17 06/18/2023 15:41:27 74.58, -59.60 51.14 3.41 15
10 06/21/2023 08:44:25 -74.57,-135.29 128.91 06/21/2023 08:43:48 -74.53,-135.30 128.93 3.58 37
11 06/21/2023 09:33:51 74.60, 32.28 51.13 06/21/2023 09:34:26 74.60, 32.22 51.14 1.72 35
12 06/24/2023 02:37:03 -74.55, -43.38 128.90 06/24/2023 02:36:47 -74.55, -43.50 128.89 3.61 16



Historial Predications of SNOs between AQUA and METOP-B
